User: anonymous
Location: Caltech
(34.1382°N, 118.1253°W)
Time: 06:43:28
(UTC-07:00)
Language:

Oscar 16 - Orbit

View from above orbital plane
View from above orbital plane
View from above satellite
View from above satellite

Ground track
Ground track

The orbit data is extracted from the following two-line orbital elements,

1 20439U 90005D   14105.09255912  .00000224  00000-0  98988-4 0  9990
2 20439 098.5035 043.6294 0010424 352.5420 073.8448 14.32331532265453
Epoch (UTC): 15 April 2014 02:13:17
Eccentricity: 0.0010424
inclination: 98.5035°
perigee height: 776 km
apogee height: 791 km
right ascension of ascending node: 43.6294°
argument of perigee: 352.5420°
revolutions per day: 14.32331532
mean anomaly at epoch: 73.8448°
orbit number at epoch: 26545

The dashed part of the orbit path shows where the satellite is in the earth's shadow,  

DLR